Location: Gez
(43.0167°N, 0.1000°W)
Time: 13:20:16
(UTC+00:00)

SL-24 R/B - Pass Details

Date: 21 January 2026
Orbit: 679 x 1188 km, 98.2° (Epoch: 10 February)

Event Time Altitude Azimuth Distance (km) Brightness Sun altitude
Rises 04:41:42 0° 8° (N) 4,090 8.8 -29.7°
Reaches altitude 10° 04:44:25 10° 4° (N) 3,127 8.2 -29.2°
Enters shadow 04:49:41 44° 332° (NNW) 1,587 6.3 -28.2°
